TimeMST,TemperatureF,Dew PointF,Humidity,Sea Level PressureIn,VisibilityMPH,Wind Direction,Wind SpeedMPH,Gust SpeedMPH,PrecipitationIn,Events,Conditions,WindDirDegrees,DateUTC
12:52 AM,24.1,10.0,55,30.07,10.0,ENE,4.6,-,N/A,,Clear,60,2012-11-08 07:52:00
1:52 AM,19.0,7.0,59,30.09,10.0,SSW,6.9,-,N/A,,Clear,210,2012-11-08 08:52:00
2:52 AM,16.0,8.1,71,30.10,10.0,Calm,Calm,-,N/A,,Clear,0,2012-11-08 09:52:00
3:52 AM,15.1,7.0,70,30.10,10.0,NNW,5.8,-,N/A,,Clear,330,2012-11-08 10:52:00
4:52 AM,10.9,3.9,73,30.15,10.0,SSE,4.6,-,N/A,,Clear,150,2012-11-08 11:52:00
5:52 AM,15.1,6.1,68,30.21,10.0,Calm,Calm,-,N/A,,Clear,0,2012-11-08 12:52:00
6:52 AM,12.9,5.0,71,30.27,10.0,Calm,Calm,-,N/A,,Clear,0,2012-11-08 13:52:00
7:52 AM,27.0,12.0,53,30.22,10.0,Calm,Calm,-,N/A,,Clear,0,2012-11-08 14:52:00
8:52 AM,36.0,15.1,43,30.14,10.0,Calm,Calm,-,N/A,,Clear,0,2012-11-08 15:52:00
9:52 AM,43.0,15.1,32,30.10,10.0,South,4.6,-,N/A,,Clear,170,2012-11-08 16:52:00
10:52 AM,52.0,16.0,24,30.04,10.0,Calm,Calm,-,N/A,,Clear,0,2012-11-08 17:52:00
11:52 AM,59.0,16.0,19,29.96,10.0,South,10.4,16.1,N/A,,Clear,170,2012-11-08 18:52:00
12:52 PM,63.0,16.0,16,29.91,10.0,WSW,11.5,24.2,N/A,,Clear,240,2012-11-08 19:52:00
1:52 PM,60.1,18.0,20,29.94,10.0,West,6.9,-,N/A,,Clear,260,2012-11-08 20:52:00
2:52 PM,57.9,19.9,23,29.96,10.0,West,10.4,-,N/A,,Partly Cloudy,270,2012-11-08 21:52:00
3:52 PM,57.9,21.0,24,29.96,10.0,WSW,10.4,-,N/A,,Clear,240,2012-11-08 22:52:00
4:52 PM,54.0,16.0,22,30.00,10.0,WSW,17.3,-,N/A,,Clear,250,2012-11-08 23:52:00
5:52 PM,46.0,15.1,29,30.04,10.0,SW,10.4,-,N/A,,Clear,220,2012-11-09 00:52:00
6:52 PM,37.9,15.1,39,30.09,10.0,Calm,Calm,-,N/A,,Clear,0,2012-11-09 01:52:00
7:52 PM,43.0,15.1,32,29.98,10.0,SW,9.2,-,N/A,,Clear,230,2012-11-09 02:52:00
8:52 PM,43.0,16.0,34,29.92,10.0,SSW,12.7,-,N/A,,Clear,200,2012-11-09 03:52:00
9:52 PM,43.0,16.0,34,29.91,10.0,South,9.2,-,N/A,,Clear,190,2012-11-09 04:52:00
10:52 PM,34.0,14.0,44,29.90,10.0,SSE,9.2,-,N/A,,Clear,150,2012-11-09 05:52:00
11:52 PM,33.1,14.0,46,29.86,10.0,ESE,9.2,-,N/A,,Clear,120,2012-11-09 06:52:00